sat.trackr.live / text

‹ back to catalog

STARLINK-2755

NORAD 48479 · 2021-040BD

PAYLOAD ACTIVE UNKNOWN

§ Identity

Operator
Country
US
Launch date
2021-05-09
Launch site
AFETR
Launch vehicle
Mass (kg)
RCS (m²)

Purposes: comms

External: N2YO · Heavens-Above · Gunter

§ Orbital elements

Epoch: 2026-09-19T23:46:57.203040Z

Period
94.01 min
Inclination
53.1585°
Eccentricity
0.0001622
Mean motion
15.31714756 rev/d
Perigee alt
469.6 km
Apogee alt
471.8 km
Semi-major
6,848.8 km
B*
5.1059e-4
RAAN
7.1410°
Arg perigee
69.2297°
Mean anomaly
290.8878°
Rev number
29,626

§ Raw data

STARLINK-27551 48479U 21040BD  26262.99093985  .00015519  00000+0  51059-3 0  99922 48479  53.1585   7.1410 0001622  69.2297 290.8878 15.31714756296267

JSON: /api/v1/satellites/48479 · /tle

For live sub-satellite position, see the globe view (requires WebGL).

§ Visibility from observer

Set your observer location to see the next 7 days of passes ≥ 10°. The values pass through the URL so the page stays shareable.

No JS? Fill the form by hand. The geolocation button needs JavaScript.